User: anonymous   Login
Location: Unspecified
(0.0000°N, 0.0000°E)
Time: 00:56:17
(UTC+00:00)
Language:

Tiros 10 - Orbit

View from above orbital plane
View from above orbital plane
View from above satellite
View from above satellite

Ground track
Ground track

The orbit data is extracted from the following two-line orbital elements,

1 01430U 65051A   14352.52152991  .00000297  00000-0  10509-3 0  7639
2 01430 098.0715 179.9661 0057772 136.0606 224.5199 14.39980493591893
Epoch (UTC): 18 December 2014 12:31:00
Eccentricity: 0.0057772
inclination: 98.0715°
perigee height: 717 km
apogee height: 800 km
right ascension of ascending node: 179.9661°
argument of perigee: 136.0606°
revolutions per day: 14.39980493
mean anomaly at epoch: 224.5199°
orbit number at epoch: 59189

The dashed part of the orbit path shows where the satellite is in the earth's shadow,  

DLR